Location: Sperry Observatory
(40.6664°N, 74.3236°W)
Time: 23:44:19
(UTC-04:00)

UOSAT-12 - Visible Passes

Search period start: 31 July 2014 00:00
Search period end: 10 August 2014 00:00
Orbit: 595 x 663 km, 64.6° (Epoch: 31 July)

Date Brightness Start Highest point End Pass type
(mag) Time Alt. Az. Time Alt. Az. Time Alt. Az.
31 Jul 7.7 22:22:07 10° NNW 22:26:42 47° NE 22:27:43 40° E visible
01 Aug 9.3 00:03:03 10° WNW 00:05:03 18° W 00:05:03 18° W visible
01 Aug 9.3 21:03:36 10° N 21:06:34 16° NE 21:09:30 10° ENE visible
01 Aug 7.0 22:42:35 10° NW 22:47:20 82° WSW 22:47:41 74° S visible
02 Aug 8.5 21:23:25 10° NNW 21:27:33 29° NE 21:30:22 17° E visible
02 Aug 8.2 23:03:26 10° NW 23:07:42 36° WSW 23:07:42 36° WSW visible
03 Aug 7.4 21:43:39 10° NNW 21:48:20 57° NE 21:50:26 30° ESE visible
03 Aug 9.3 23:25:04 10° WNW 23:27:46 16° WSW 23:27:46 16° WSW visible
04 Aug 7.3 22:04:12 10° NW 22:08:54 66° WSW 22:10:33 39° S visible
05 Aug 8.2 20:44:54 10° NNW 20:49:14 34° NE 20:53:23 11° ESE visible
05 Aug 8.6 22:25:13 10° NW 22:29:17 29° WSW 22:30:44 25° SW visible
06 Aug 7.2 21:05:13 10° NNW 21:09:57 71° NE 21:13:37 16° SE visible
06 Aug 9.6 22:47:19 10° W 22:49:29 13° WSW 22:50:58 12° SW visible
07 Aug 7.8 21:25:52 10° NW 21:30:28 53° WSW 21:33:56 17° S visible
08 Aug 9.1 21:47:03 10° WNW 21:50:48 24° WSW 21:54:20 11° SSW visible
09 Aug 7.2 20:26:47 10° NNW 20:31:33 86° ENE 20:36:13 10° SSE visible
09 Aug 10.0 22:10:22 10° W 22:10:57 10° WSW 22:11:32 10° WSW visible
